Location: Bacharowice
(49.9333°N, 19.5833°E)
Time: 03:58:48
(UTC+00:00)

Cosmos 1400 Rocket - Pass Details

Date: 11 May 2021
Orbit: 520 x 568 km, 81.2° (Epoch: 22 June)

Event Time Altitude Azimuth Distance (km) Brightness Sun altitude
Rises 23:11:01 0° 352° (N) 2,776 7.7 -21.5°
Reaches altitude 10° 23:13:18 10° 358° (N) 1,870 6.6 -21.5°
Maximum altitude 23:17:17 47° 73° (ENE) 754 3.6 -21.4°
Enters shadow 23:18:23 37° 117° (ESE) 884 3.7 -21.4°
